KTXEAGLE7 Weather Reports


Display with metric or nautical units.
time (UTC)temp
F
wind
direction
speed
MPH
gust
MPH
rain 1hr
in
rain 24hr
in
rain mn
in
humidity
%
barometer
mb
20260507043102 66 80 3.0 15.0 0.00 0.00 0.00 86 1013.7
20260507041554 66 24 5.0 15.0 0.00 0.00 0.00 86 1013.7
20260507040046 66 317 4.0 11.0 0.00 0.00 0.00 85 1013.8
20260507034544 67 21 5.0 12.0 0.00 0.00 0.00 85 1013.4
20260507033043 67 13 7.0 15.0 0.00 0.00 0.00 84 1013.5
20260507031545 67 343 5.0 12.0 0.00 0.00 0.00 84 1013.5
20260507030038 67 326 7.0 14.0 0.00 0.00 0.00 83 1013.4
20260507024534 68 296 4.0 14.0 0.00 0.00 0.00 83 1012.9
20260507023033 68 11 4.0 12.0 0.00 0.00 0.00 82 1012.6
20260507021528 69 339 5.0 11.0 0.00 0.00 0.00 82 1012.3
20260507020042 69 319 5.0 13.0 0.00 0.00 0.00 82 1012.0
20260507014521 69 41 5.0 12.0 0.00 0.00 0.00 82 1011.4
20260507013022 70 5 5.0 13.0 0.00 0.00 0.00 82 1011.4
20260507011523 71 329 3.0 12.0 0.00 0.00 0.00 82 1011.2
20260507010014 71 20 2.0 8.0 0.00 0.00 0.00 84 1011.1
20260507004512 72 308 5.0 10.0 0.00 0.00 0.00 83 1010.7
20260507003010 72 314 5.0 14.0 0.00 0.00 0.00 83 1010.4
20260507001525 73 17 6.0 15.0 0.00 0.00 0.00 83 1010.1
20260507000003 74 72 5.0 13.0 0.00 0.00 0.00 82 1009.8
20260506234503 77 348 6.0 17.0 0.00 0.00 0.00 79 1009.7
20260506233102 85 338 0.0 0.0 0.00 0.00 0.00 79 1009.1
20260506231607 85 292 0.0 0.0 0.00 0.00 0.00 79 1008.8
20260506230113 85 248 0.0 0.0 0.00 0.00 0.00 80 1008.6
20260506224557 85 248 0.0 0.0 0.00 0.00 0.00 81 1008.6
20260506223103 84 248 0.0 3.0 0.00 0.00 0.00 83 1008.5
20260506221610 84 219 2.0 4.0 0.00 0.00 0.00 81 1008.6
20260506220056 85 246 3.0 6.0 0.00 0.00 0.00 80 1008.5
20260506214556 84 238 4.0 9.0 0.00 0.00 0.00 81 1008.4
20260506213055 84 161 3.0 8.0 0.00 0.00 0.00 82 1008.6
20260506211554 85 179 4.0 7.0 0.00 0.00 0.00 82 1008.7
20260506210056 84 185 2.0 7.0 0.00 0.00 0.00 85 1008.8
20260506204550 83 225 3.0 10.0 0.00 0.00 0.00 84 1008.8
20260506203045 82 182 4.0 11.0 0.00 0.00 0.00 86 1009.0
20260506201544 82 208 5.0 8.0 0.00 0.00 0.00 87 1009.3
20260506200042 82 194 7.0 11.0 0.00 0.00 0.00 85 1009.4
20260506194541 82 180 7.0 11.0 0.00 0.00 0.00 86 1009.4
20260506193043 81 180 4.0 8.0 0.00 0.00 0.00 88 1009.6
20260506191537 81 140 5.0 9.0 0.00 0.00 0.00 88 1009.6
20260506190035 81 131 6.0 8.0 0.00 0.00 0.00 89 1010.0
20260506184537 81 169 3.0 4.0 0.00 0.00 0.00 88 1010.0
20260506183030 80 150 1.0 8.0 0.00 0.00 0.00 90 1010.2
20260506181536 79 80 3.0 7.0 0.00 0.00 0.00 93 1010.5
20260506180026 79 67 1.0 4.0 0.00 0.00 0.00 92 1010.7
20260506174523 78 83 5.0 7.0 0.00 0.00 0.00 94 1010.9
20260506173023 78 92 3.0 8.0 0.00 0.00 0.00 94 1011.2
20260506171527 78 93 3.0 7.0 0.00 0.00 0.00 94 1011.3
20260506170027 78 126 5.0 9.0 0.00 0.00 0.00 93 1011.4
20260506164541 78 121 3.0 7.0 0.00 0.00 0.00 92 1011.3
20260506163022 79 125 5.0 9.0 0.00 0.00 0.00 92 1011.2
20260506161522 78 124 8.0 10.0 0.00 0.00 0.00 93 1011.0
20260506160017 78 119 7.0 11.0 0.00 0.00 0.00 92 1010.7
20260506154515 78 133 4.0 9.0 0.00 0.00 0.00 93 1010.8
20260506153013 78 147 4.0 8.0 0.00 0.00 0.00 93 1010.8
20260506151514 77 124 4.0 8.0 0.00 0.00 0.00 94 1010.3
20260506150008 77 132 8.0 11.0 0.00 0.00 0.00 94 1010.2
20260506144511 77 130 5.0 10.0 0.00 0.00 0.00 95 1010.2
20260506143006 76 125 7.0 15.0 0.00 0.00 0.00 96 1009.9
20260506141511 76 140 7.0 12.0 0.00 0.00 0.00 97 1009.8
20260506140002 75 121 8.0 10.0 0.00 0.00 0.00 98 1009.7
20260506134502 75 121 7.0 10.0 0.00 0.00 0.00 98 1009.8
20260506133003 75 123 6.0 11.0 0.00 0.00 0.00 98 1009.9
20260506131502 75 117 6.0 10.0 0.00 0.00 0.00 99 1009.9
20260506130000 75 118 5.0 10.0 0.00 0.00 0.00 99 1009.9
20260506124601 74 119 7.0 11.0 0.00 0.00 0.00 99 1009.8
20260506123100 74 133 5.0 9.0 0.00 0.00 0.00 99 1009.7
20260506121601 74 148 6.0 10.0 0.00 0.00 0.00 99 1009.6
20260506120110 74 136 5.0 9.0 0.00 0.00 0.00 98 1009.4
20260506114559 74 151 5.0 8.0 0.00 0.00 0.00 98 1009.4
20260506113058 74 153 4.0 8.0 0.00 0.00 0.00 98 1009.3
20260506111557 74 138 5.0 9.0 0.00 0.00 0.00 98 1009.0
20260506110112 74 152 6.0 10.0 0.00 0.00 0.00 98 1008.9
20260506104611 74 156 7.0 11.0 0.00 0.00 0.00 99 1008.9
20260506103052 74 150 7.0 10.0 0.00 0.00 0.00 99 1008.7
20260506101552 74 153 6.0 9.0 0.00 0.00 0.00 98 1008.8
20260506100058 74 170 4.0 7.0 0.00 0.00 0.00 98 1008.8
20260506094555 74 142 3.0 7.0 0.00 0.00 0.00 98 1008.8
20260506093046 74 148 5.0 8.0 0.00 0.00 0.00 98 1008.8
20260506091545 74 144 5.0 8.0 0.00 0.00 0.00 98 1008.7
20260506090043 75 144 4.0 7.0 0.00 0.00 0.00 98 1008.8
20260506084613 75 138 1.0 4.0 0.00 0.00 0.00 98 1009.1
20260506083043 75 138 1.0 7.0 0.00 0.00 0.00 98 1009.0
20260506081551 75 153 3.0 6.0 0.00 0.00 0.00 98 1008.8
20260506073037 75 192 6.0 11.0 0.00 0.00 0.00 97 1009.1
20260506071536 75 159 6.0 10.0 0.00 0.00 0.00 97 1009.4
20260506061529 75 170 6.0 12.0 0.00 0.00 0.00 96 1009.7
20260506044521 76 152 4.0 8.0 0.00 0.00 0.00 95 1009.8